Погода в Сторожинце

Украина / Черновицкая область     48°09′34″N   25°43′20″E
темп.,
°C
ветер,
м/с
пор.,
м/с
влажн.,
%
обл.,
%
осадки,
мм/ч
давл.,
гПа
погр.,
м
15 августа, пн
пн1500:00+18зсз2286100 0.7 100915
03:00+17зсз229098 0.7 100815
06:00+16з2292100 0.3 100820
09:00+19ссз2384100 0.6 1008245
12:00+25ссз3354100 0.0 1008789
15:00+28св344297 0.0 10071615
18:00+27всв4343100 0.0 10061373
21:00+22зсз2255100 0.0 100711
16 августа, вт
вт1600:00+19з2270100 0.0 100714
03:00+18з2276100 0.0 100736
06:00+16зсз2286100 0.0 100718
09:00+20сз3669100 0.0 1008299
12:00+22зсз246398 0.1 1008309
15:00+24ссз3351100 0.1 1009633
18:00+23зсз345733 0.0 1008418
21:00+20з117174 0.0 100911
17 августа, ср
ср1700:00+17з228645 0.0 101020
03:00+16зюз229145 0.0 100921
06:00+17з2283100 0.0 100939
09:00+19зсз6118564 0.7 1010574
12:00+25сз785721 0.0 10101338
15:00+28сз694294 0.0 10092270
18:00+25ссз3451100 0.0 1010602
21:00+21с126784 0.0 101113
18 августа, чт
чт1800:00+19зсз237342 0.0 101242
03:00+16з22890 0.0 101223
06:00+16зсз22922 0.0 101224
09:00+21сз46685 0.0 1013457
12:00+27сз45495 0.0 10111362
15:00+30сз443855 0.0 10102283
18:00+28с234387 0.1 1011988
21:00+22ссв116145 0.1 101111
19 августа, пт
пт1900:00+21зюз11671 0.0 101211
03:00+19зюз11730 0.0 101111
06:00+18зюз11790 0.0 101111
09:00+24з11590 0.0 1012283
12:00+29в21444 0.0 10111277
15:00+32св2333100 0.0 10102120
18:00+32всв3234100 0.0 10101742
21:00+24вюв365645 0.1 101078